Date,TemperatureHighF,TemperatureAvgF,TemperatureLowF,DewpointHighF,DewpointAvgF,DewpointLowF,HumidityHigh,HumidityAvg,HumidityLow,PressureMaxIn,PressureMinIn,WindSpeedMaxMPH,WindSpeedAvgMPH,GustSpeedMaxMPH,PrecipitationSumIn
2013-1-22,74,63,55,45,30,21,51,30,15,30.09,30.03,12,3,15,0.00
2013-1-23,69,58,52,48,38,22,81,50,19,30.10,29.97,19,3,19,0.00
2013-1-24,64,58,53,60,54,46,92,88,67,30.15,30.03,10,4,14,0.20
2013-1-25,68,59,55,59,56,53,94,89,72,30.15,30.00,9,3,12,0.02
2013-1-26,63,56,48,57,51,44,91,83,65,30.05,29.95,17,6,22,0.00
2013-1-27,57,50,44,47,42,36,85,73,59,30.16,30.05,19,6,22,0.00
2013-1-28,56,49,42,47,40,34,76,70,60,30.28,30.15,16,6,21,0.00
2013-1-29,59,51,44,48,42,38,82,72,58,30.32,30.21,14,5,19,0.00
2013-1-30,65,54,47,49,43,38,86,68,44,30.35,30.23,12,4,15,0.00
2013-1-31,63,53,46,53,47,42,88,80,69,30.27,30.14,10,3,12,0.00
2013-2-1,59,52,46,53,48,42,92,86,72,30.22,30.14,17,4,18,0.00
2013-2-2,60,53,49,53,50,46,92,87,73,30.26,30.16,10,2,12,0.00
2013-2-3,60,52,47,54,48,44,95,89,77,30.22,30.10,18,4,21,0.00
2013-2-4,61,51,44,55,48,43,96,90,75,30.13,30.02,9,3,13,0.01
2013-2-5,53,50,46,50,47,43,94,90,82,30.13,30.05,11,2,15,0.00
2013-2-6,62,52,45,50,45,41,88,76,57,30.16,30.06,19,5,22,0.00
2013-2-7,57,49,43,50,44,41,94,84,73,30.19,30.05,14,4,18,0.01
2013-2-8,53,46,42,46,42,39,92,85,75,30.05,29.93,14,4,26,0.37
2013-2-9,56,47,41,47,42,38,93,83,71,30.12,30.01,19,5,20,0.01
2013-2-10,54,47,40,49,42,38,92,85,74,30.13,30.03,14,5,16,0.00
2013-2-11,56,48,42,49,43,39,92,82,65,30.27,30.09,11,4,13,0.00
2013-2-12,57,49,42,51,43,38,89,80,57,30.37,30.27,15,4,16,0.00
2013-2-13,64,52,42,52,45,40,94,78,53,30.31,30.16,15,4,18,0.00
2013-2-14,52,48,45,47,43,41,89,84,80,30.20,30.16,4,1,8,0.00
2013-2-16,70,61,51,44,33,21,57,36,18,30.07,30.03,12,5,17,0.00
2013-2-17,59,51,44,51,44,35,90,78,55,30.05,29.95,20,5,23,0.00
2013-2-18,53,50,47,48,46,41,90,84,73,30.10,29.99,10,3,13,0.00
2013-2-19,53,49,46,47,43,40,86,78,69,30.01,29.88,13,5,15,0.00
2013-2-20,56,51,46,47,44,39,82,75,65,30.08,29.96,21,9,23,0.00
2013-2-21,61,50,42,46,41,37,87,72,52,30.17,30.05,16,5,20,0.00
2013-2-22,60,52,45,50,40,34,76,65,40,30.24,30.16,21,5,23,0.00
2013-2-23,59,52,46,49,42,31,79,70,48,30.23,30.06,19,6,26,0.00
2013-2-24,66,52,44,47,35,26,74,53,33,30.26,30.12,12,4,18,0.00
2013-2-25,61,50,44,49,41,31,84,70,48,30.27,30.12,18,4,23,0.00
2013-2-26,73,58,46,46,33,21,84,41,19,30.18,30.05,17,4,19,0.00
2013-2-27,68,56,48,47,35,20,77,47,19,30.34,30.17,17,5,21,0.00
2013-2-28,74,58,45,52,44,37,88,63,32,30.40,30.30,14,4,16,0.00
2013-3-1,76,65,56,54,43,35,68,46,31,30.36,30.19,10,3,12,0.00
2013-3-2,66,57,50,54,47,40,94,70,41,30.21,30.10,16,4,17,0.00
2013-3-3,61,55,48,53,49,43,91,82,51,30.13,30.03,21,6,22,0.00
2013-3-4,59,51,45,51,47,42,92,85,73,30.14,30.05,20,5,25,0.00
2013-3-5,56,51,50,48,46,44,91,81,70,30.13,30.05,12,4,13,0.00
2013-3-6,56,51,48,54,48,44,93,90,78,30.13,30.02,13,3,15,0.24
2013-3-7,56,51,46,52,47,43,92,89,82,30.03,29.85,10,3,14,0.25
2013-3-8,55,49,45,49,45,42,94,87,74,30.12,29.82,21,6,24,0.12
2013-3-9,60,53,48,50,45,41,79,73,64,30.30,30.11,21,6,22,0.00
2013-3-10,62,53,48,52,46,40,86,76,63,30.34,30.21,21,6,23,0.00
2013-3-11,65,52,44,55,47,42,94,85,60,30.24,30.08,11,2,14,0.01
2013-3-12,60,52,45,53,48,43,94,88,77,30.13,30.05,12,3,12,0.00
2013-3-13,56,50,46,53,48,44,96,93,87,30.14,30.08,14,5,16,0.01
2013-3-14,57,51,47,54,49,45,96,93,83,30.16,30.07,12,4,15,0.00
2013-3-15,76,57,48,62,50,47,97,79,43,30.08,29.95,19,5,20,0.01
2013-3-16,70,56,50,56,50,47,92,79,55,30.03,29.96,21,5,23,0.00
2013-3-17,66,56,50,53,47,41,87,72,53,30.08,29.98,20,6,23,0.00
2013-3-18,66,53,46,54,48,43,92,83,57,30.10,29.99,19,4,24,0.00
2013-3-19,59,54,49,54,50,46,91,85,71,30.14,30.06,18,4,20,0.00
2013-3-20,64,57,52,55,47,42,86,70,45,30.15,30.05,11,2,20,0.00
2013-3-21,63,55,50,53,48,43,92,77,58,30.07,29.92,21,6,25,0.00
2013-3-22,66,56,48,49,40,27,75,56,35,30.02,29.93,19,5,22,0.00
2013-3-23,73,59,49,46,31,18,72,36,20,30.07,29.98,16,4,17,0.00
2013-3-24,68,54,46,50,43,36,82,67,41,30.06,29.93,20,5,23,0.00
2013-3-25,58,50,46,52,47,42,94,87,75,30.02,29.93,13,4,14,0.00
2013-3-26,57,51,46,50,47,44,93,86,77,30.03,29.94,18,5,20,0.00
2013-3-27,53,49,47,50,47,45,94,92,88,30.03,29.97,7,2,7,0.00
2013-3-28,62,56,51,56,52,49,93,88,75,30.10,30.03,16,6,25,0.01
2013-3-29,57,52,49,54,50,47,96,94,87,30.14,30.05,9,2,13,0.00
2013-3-30,65,56,50,57,52,49,97,88,68,30.14,30.06,9,2,12,0.04
2013-3-31,61,56,52,57,54,50,96,93,82,30.13,30.08,9,3,11,0.01
2013-4-1,61,56,51,58,54,48,96,93,87,30.19,30.11,12,3,15,0.17
2013-4-2,65,56,49,55,51,47,94,83,64,30.17,30.03,19,6,22,0.00
2013-4-3,64,54,50,57,52,48,95,90,73,30.11,30.05,16,4,17,0.00
2013-4-4,64,56,51,58,53,50,96,89,73,30.15,30.07,19,5,22,0.01
2013-4-5,63,57,52,55,52,48,95,85,66,30.17,30.08,19,6,26,0.00
2013-4-6,63,57,51,55,51,47,89,80,68,30.18,30.09,23,8,27,0.00
2013-4-7,66,58,52,54,50,48,90,76,64,30.13,29.92,23,8,26,0.00
2013-4-8,61,54,49,50,44,40,92,70,51,29.94,29.83,24,10,32,0.02
2013-4-9,70,56,49,49,44,34,84,66,33,30.06,29.93,19,7,23,0.00
2013-4-10,75,59,50,51,43,35,91,60,23,30.16,30.01,18,6,25,0.00
2013-4-11,65,54,48,52,48,45,95,83,59,30.05,29.83,22,5,26,0.00
2013-4-12,67,53,47,54,47,44,93,83,58,29.91,29.81,12,3,17,0.01
2013-4-13,57,51,47,51,48,44,93,87,76,29.95,29.85,15,4,21,0.00
2013-4-14,60,52,46,50,46,42,93,82,67,29.92,29.81,21,6,24,0.00
2013-4-15,57,51,46,50,44,38,91,77,58,29.98,29.89,23,9,30,0.00
2013-4-16,52,46,41,42,37,32,77,72,57,30.06,29.98,15,4,18,0.00
2013-4-17,66,58,50,49,40,33,79,52,31,30.21,30.11,23,8,24,0.00
2013-4-18,69,58,50,49,37,27,76,47,25,30.24,30.17,20,5,21,0.00
2013-4-19,75,58,47,53,46,38,84,67,27,30.22,30.02,21,5,23,0.00
2013-4-20,78,60,48,55,48,44,89,67,37,30.08,29.92,21,4,23,0.00
2013-4-21,67,55,48,54,50,45,90,82,59,30.02,29.93,13,3,16,0.00
2013-4-22,59,54,51,54,50,48,94,89,81,30.02,29.92,11,4,12,0.00
2013-4-23,61,55,51,55,51,49,95,89,76,29.99,29.91,13,4,16,0.00
2013-4-24,56,54,52,54,51,50,94,90,85,29.99,29.90,7,1,8,0.01
2013-4-25,63,57,52,54,51,45,86,79,70,30.13,29.99,18,5,20,0.00
2013-4-26,63,55,49,54,49,45,91,82,70,30.22,30.12,23,6,23,0.00
2013-4-27,63,54,48,55,50,45,93,86,70,30.20,30.06,14,4,16,0.00
2013-4-28,60,53,49,53,50,48,95,88,77,30.08,29.90,15,4,18,0.00
2013-4-29,56,53,50,53,51,48,95,93,90,29.93,29.81,8,2,10,0.00
2013-4-30,52,51,51,51,50,49,96,95,94,29.84,29.83,8,2,11,0.01